Asheboro, NC

2:00 AM EDT on July 23, 2017 (GMT -0400)
Asheboro Municipal

Weather History for KHBI - July, 2014

Change the Weather History Date:

Saturday, July 19, 2014

  Actual Average Record
Temperature  
Mean Temperature 71 °F -  
Max Temperature 78 °F 90 °F 101 °F (1986)
Min Temperature 64 °F 69 °F 61 °F (1946)
Cooling Degree Days 6    
Growing Degree Days 21 (Base 50)    
Moisture  
Dew Point 61 °F    
Average Humidity 76    
Maximum Humidity 99    
Minimum Humidity 39    
Precipitation  
Precipitation 0.05 in - - ()
Sea Level Pressure  
Sea Level Pressure 30.18 in    
Wind  
Wind Speed 2 mph (North)    
Max Wind Speed 6 mph    
Max Gust Speed -    
Visibility 10 miles    
Events Rain    
Averages and records for this station are not official NWS values.
T = Trace of Precipitation, MM = Missing Value Source: NWS Daily Summary

Daily Weather History Graph

Daily Weather History Graph

Search for Another Location

Airport or City:

Trip Planner

Search our weather history database for the weather conditions in past years. The results will help you decide how hot, cold, wet, or windy it might be!

Date:

Astronomy

Jul. 19, 2014 Rise Set
Actual Time 6:17 AM EDT 8:33 PM EDT
Civil Twilight 5:48 AM EDT 9:02 PM EDT
Nautical Twilight 5:13 AM EDT 9:37 PM EDT
Astronomical Twilight 4:34 AM EDT 10:16 PM EDT
Moon 12:45 AM EDT (7/19) 2:18 PM EDT (7/19)
Length of Visible Light 15h 13m
Length of Day
14h 15m
Last Quarter, 44% of the Moon is Illuminated
Jul 19
Last Quarter
Jul 26
New
Aug 3
First Quarter
Aug 10
Full
Aug 17
Last Quarter

Hourly Weather History & Observations

Time (EDT) Temp. Dew Point Humidity Pressure Visibility Wind Dir Wind Speed Gust Speed Precip Events Conditions
12:15 AM 68.5 °F 65.8 °F 91% 30.21 in 10.0 mi Calm Calm - N/A   Clear
12:35 AM 69.3 °F 63.5 °F 82% 30.21 in 10.0 mi Calm Calm - N/A   Clear
12:55 AM 70.9 °F 59.4 °F 67% 30.21 in 10.0 mi Calm Calm - N/A   Clear
1:15 AM 71.6 °F 58.1 °F 62% 30.20 in 10.0 mi SE 4.6 mph - N/A   Clear
1:35 AM 71.6 °F 57.6 °F 61% 30.19 in 10.0 mi SE 5.8 mph - N/A   Clear
1:55 AM 71.1 °F 57.4 °F 62% 30.19 in 10.0 mi SE 4.6 mph - N/A   Clear
2:15 AM 70.7 °F 57.2 °F 62% 30.18 in 10.0 mi SE 5.8 mph - N/A   Clear
2:35 AM 70.3 °F 57.4 °F 63% 30.18 in 10.0 mi SE 3.5 mph - N/A Rain Light Rain
2:55 AM 70.0 °F 56.8 °F 63% 30.18 in 10.0 mi SE 3.5 mph - N/A   Scattered Clouds
3:15 AM 69.8 °F 57.2 °F 64% 30.18 in 10.0 mi SE 3.5 mph - N/A   Light Drizzle
3:35 AM 68.7 °F 58.1 °F 69% 30.18 in 10.0 mi SE 4.6 mph - N/A Rain Light Rain
3:55 AM 68.0 °F 58.3 °F 71% 30.18 in 10.0 mi Calm Calm - N/A   Clear
4:35 AM 68.0 °F 58.5 °F 71% 30.18 in 10.0 mi Calm Calm - N/A   Overcast
4:55 AM 68.0 °F 58.5 °F 71% 30.19 in 10.0 mi SSE 3.5 mph - N/A   Mostly Cloudy
5:15 AM 68.0 °F 58.5 °F 71% 30.18 in 10.0 mi Calm Calm - N/A   Light Drizzle
5:35 AM 68.0 °F 59.0 °F 73% 30.18 in 10.0 mi Calm Calm - N/A   Overcast
5:55 AM 65.7 °F 61.2 °F 85% 30.19 in 10.0 mi Calm Calm - N/A   Light Drizzle
6:15 AM 65.5 °F 61.7 °F 88% 30.19 in 10.0 mi Calm Calm - N/A   Mostly Cloudy
6:35 AM 65.3 °F 61.9 °F 89% 30.19 in 10.0 mi Calm Calm - N/A   Overcast
6:55 AM 64.9 °F 62.1 °F 90% 30.21 in 10.0 mi Calm Calm - N/A Rain Light Rain
7:15 AM 65.8 °F 63.5 °F 92% 30.21 in 10.0 mi Calm Calm - N/A Rain Light Rain
7:35 AM 64.9 °F 63.3 °F 94% 30.21 in 10.0 mi Calm Calm - N/A Rain Light Rain
7:55 AM 65.3 °F 63.0 °F 92% 30.21 in 10.0 mi Calm Calm - N/A   Clear
8:15 AM 65.7 °F 62.8 °F 90% 30.22 in 10.0 mi Calm Calm - N/A   Clear
8:35 AM 66.4 °F 62.6 °F 88% 30.22 in 10.0 mi Calm Calm - N/A   Clear
8:55 AM 66.6 °F 62.6 °F 87% 30.22 in 10.0 mi Calm Calm - N/A   Light Drizzle
9:15 AM 67.6 °F 63.0 °F 85% 30.21 in 10.0 mi Calm Calm - N/A   Clear
9:35 AM 68.0 °F 64.2 °F 88% 30.20 in 10.0 mi North 3.5 mph - N/A   Clear
9:55 AM 68.9 °F 64.2 °F 85% 30.19 in 10.0 mi North 3.5 mph - N/A   Clear
10:15 AM 69.3 °F 64.4 °F 84% 30.19 in 10.0 mi NNW 3.5 mph - N/A   Clear
10:35 AM 69.3 °F 64.9 °F 86% 30.19 in 10.0 mi NW 3.5 mph - N/A   Clear
10:55 AM 70.0 °F 64.4 °F 82% 30.19 in 10.0 mi West 3.5 mph - N/A   Clear
11:15 AM 72.0 °F 61.9 °F 70% 30.19 in 10.0 mi Calm Calm - N/A   Clear
11:35 AM 74.1 °F 57.4 °F 56% 30.19 in 10.0 mi Calm Calm - N/A   Clear
11:55 AM 76.3 °F 53.1 °F 44% 30.18 in 10.0 mi East 5.8 mph - N/A   Clear
12:15 PM 76.3 °F 54.1 °F 46% 30.17 in 10.0 mi Calm Calm - N/A   Clear
12:35 PM 77.5 °F 52.7 °F 42% 30.17 in 10.0 mi NNE 5.8 mph - N/A   Clear
12:55 PM 77.2 °F 53.8 °F 44% 30.18 in 10.0 mi ENE 4.6 mph - N/A   Clear
1:15 PM 77.7 °F 54.3 °F 44% 30.18 in 10.0 mi Calm Calm - N/A   Clear
1:35 PM 78.3 °F 51.1 °F 39% 30.17 in 10.0 mi Calm Calm - N/A   Clear
1:55 PM 77.7 °F 52.7 °F 42% 30.16 in 10.0 mi Calm Calm - N/A   Clear
2:15 PM 77.4 °F 53.6 °F 44% 30.17 in 10.0 mi Calm Calm - N/A   Clear
2:35 PM 77.0 °F 57.2 °F 50% 30.17 in 10.0 mi NW 3.5 mph - N/A Rain Light Rain
2:55 PM 75.2 °F 61.0 °F 61% 30.17 in 10.0 mi NNW 3.5 mph - N/A Rain Light Rain
3:15 PM 74.3 °F 63.5 °F 69% 30.16 in 10.0 mi NNW 4.6 mph - N/A Rain Light Rain
3:35 PM 74.5 °F 63.0 °F 67% 30.16 in 10.0 mi WNW 4.6 mph - N/A   Clear
3:55 PM 74.8 °F 60.1 °F 60% 30.16 in 10.0 mi NNW 3.5 mph - N/A   Clear
4:15 PM 74.8 °F 61.0 °F 62% 30.16 in 10.0 mi NW 3.5 mph - N/A   Clear
4:35 PM 75.2 °F 60.4 °F 60% 30.15 in 10.0 mi NW 3.5 mph - N/A   Clear
4:50 PM 74.7 °F 59.2 °F 58% 30.15 in 10.0 mi NNW 3.5 mph - N/A   Scattered Clouds
5:15 PM 72.9 °F 63.7 °F 73% 30.14 in 10.0 mi Calm Calm - N/A   Scattered Clouds
5:35 PM 72.1 °F 64.0 °F 76% 30.15 in 10.0 mi NW 3.5 mph - N/A Rain Light Rain
5:55 PM 70.3 °F 65.1 °F 83% 30.14 in 10.0 mi Calm Calm - 0.01 in Rain Rain
6:15 PM 68.9 °F 66.7 °F 93% 30.14 in 7.0 mi Calm Calm - 0.01 in Rain Rain
6:35 PM 68.4 °F 67.1 °F 96% 30.15 in 5.0 mi Calm Calm - 0.02 in Rain Rain
6:55 PM 67.8 °F 65.5 °F 92% 30.15 in 10.0 mi NNW 3.5 mph - 0.03 in Rain Rain
7:15 PM 67.6 °F 66.4 °F 96% 30.14 in 10.0 mi Calm Calm - 0.01 in Rain Light Rain
7:35 PM 67.5 °F 66.7 °F 98% 30.14 in 7.0 mi NNE 4.6 mph - 0.01 in Rain Light Rain
7:55 PM 67.5 °F 66.4 °F 96% 30.14 in 10.0 mi Calm Calm - 0.01 in   Clear
8:15 PM 67.3 °F 66.6 °F 98% 30.14 in 7.0 mi Calm Calm - N/A   Mostly Cloudy
8:35 PM 67.1 °F 66.7 °F 99% 30.14 in 7.0 mi Calm Calm - N/A   Overcast
8:55 PM 67.1 °F 66.7 °F 99% 30.15 in 7.0 mi Calm Calm - N/A   Overcast
9:15 PM 67.1 °F 66.7 °F 99% 30.15 in 7.0 mi Calm Calm - N/A   Overcast
9:35 PM 67.1 °F 66.6 °F 98% 30.16 in 7.0 mi Calm Calm - N/A   Overcast
9:55 PM 67.3 °F 66.2 °F 96% 30.17 in 10.0 mi Calm Calm - N/A   Overcast
11:15 PM 66.2 °F 65.5 °F 98% 30.16 in 10.0 mi Calm Calm - N/A   Overcast
11:35 PM 65.8 °F 65.3 °F 98% 30.16 in 10.0 mi North 3.5 mph - N/A   Overcast
11:55 PM 65.7 °F 65.1 °F 98% 30.15 in 10.0 mi Calm Calm - N/A   Overcast